{"data":{"norad_id":65545,"epoch":"2026-09-20T06:02:48.607872Z","epoch_age_seconds":173915,"freshness":"STALE","line1":"1 65545U 25199B   26263.25195148  .00000072  00000+0  28649-4 0  9996","line2":"2 65545  85.9968   1.4321 0002095 107.7970 252.3442 14.12463668 53450","mean_motion":14.12463668,"eccentricity":0.0002095,"inclination_deg":85.9968,"raan_deg":1.4321,"arg_perigee_deg":107.797,"mean_anomaly_deg":252.3442,"bstar":2.8649e-5,"rev_number":5345,"period_min":101.94952497709,"perigee_km":849.43882777547,"apogee_km":852.46781662047,"semimajor_km":7229.090322198,"source":"CELESTRAK","updated_at":"2026-09-21T09:00:15.423421Z"}}